Theta_e
318 318 319 320 316 316 316 316 318 319 318 317 318 318 318 317 320 320 317 316 322 322
319 320 318 317 318 318 316 318 318 317 315 315 316 317 315 314 314 316 316 312 317 318
318 320 319 318 316 317 317 315 315 314 313 312 312 314 313 312 313 313 315 319 316 315
319 319 318 317 316 315 314 313 312 311 309 309 309 309 306 306 309 311 313 313 313 315
318 319 316 316 314 313 311 311 310 309 308 308 308 307 307 307 308 309 308 308 307 309
316 316 315 313 312 311 310 308 308 308 307 307 307 307 306 308 307 305 304 304 304 304
315 314 312 311 310 310 309 307 306 306 307 307 307 307 307 306 304 304 304 304 304 303
315 312 311 310 309 309 307 307 307 306 306 305 306 305 301 302 302 301 301 302 303 304
313 310 309 308 307 305 305 305 304 302 303 302 306 301 302 301 298 299 299 298 301 302
310 308 306 305 304 303 302 301 299 300 300 300 300 300 300 301 299 300 297 299 300 302
305 304 303 302 302 302 302 299 298 297 298 298 300 300 299 300 298 298 297 298 300 302
303 302 301 299 298 299 298 297 296 297 296 296 295 299 299 300 300 299 295 298 300 302
300 299 297 297 297 297 296 295 296 295 297 300 298 299 298 299 300 298 298 295 295 298
298 297 297 296 295 294 293 293 294 296 297 298 298 297 299 300 298 298 297 294 294 295
Wind_Speed
8 5 5 6 5 5 4 4 4 4 4 5 6 5 6 4 5 5 5 7 6 5
7 8 7 7 7 5 5 4 6 6 6 6 6 5 4 4 5 5 5 6 6 5
7 7 7 7 7 7 5 6 6 6 6 6 6 6 5 4 6 5 4 4 7 5
7 7 7 6 6 5 5 6 6 6 6 6 6 5 5 6 6 7 5 6 6 9
7 7 7 6 6 5 5 4 4 5 5 6 6 6 6 5 5 6 6 6 7 8
7 7 7 7 5 4 4 4 5 5 5 5 6 6 7 4 4 5 5 5 6 8
8 8 7 6 5 4 3 4 5 5 5 6 6 6 2 4 5 5 5 6 6 7
7 7 6 6 4 3 3 3 4 6 6 7 7 4 4 5 5 5 6 6 8 8
7 7 6 4 3 1 2 3 5 5 6 6 5 2 5 4 4 5 6 8 9 9
7 6 6 5 4 2 1 3 3 4 6 7 7 4 1 5 5 4 6 9 9 9
7 7 7 6 6 5 3 3 3 3 5 5 3 2 7 7 6 7 7 9 8 10
10 9 8 7 6 5 5 4 3 3 4 4 6 8 12 11 6 7 7 7 6 7
8 7 6 5 6 3 3 3 4 6 6 12 11 13 13 9 5 5 5 5 5 7
7 6 5 4 3 4 4 5 5 8 8 8 9 9 10 8 3 4 4 3 4 2
Wind_Direction
95 87 74 81 89 81 86 76 64 55 32 11 4 11 13 355 341 341 330 330 328 318
93 85 87 78 77 74 72 55 41 34 21 3 356 346 7 358 334 334 306 313 330 320
110 103 98 88 81 70 64 43 34 22 11 354 347 357 3 337 319 334 337 347 345 330
119 107 97 92 83 68 57 45 30 13 2 350 346 349 352 337 333 339 356 10 3 338
129 117 106 96 83 69 55 38 22 4 1 349 344 337 329 314 12 34 11 7 358 338
130 124 117 110 94 69 52 23 4 5 353 346 335 332 320 54 33 26 5 350 337 321
132 125 121 116 99 71 42 7 355 355 350 337 327 319 41 34 13 3 346 321 303 299
124 117 115 104 94 73 31 11 13 7 356 347 336 25 12 8 8 344 326 309 300 295
118 123 120 114 103 85 55 29 42 16 348 338 329 76 27 18 330 335 317 305 298 288
124 102 78 68 37 357 344 89 29 7 359 327 320 184 327 294 310 309 311 302 298 296
77 72 59 43 28 14 3 52 30 347 324 326 347 296 272 284 290 325 300 292 290 305
57 53 46 32 8 352 24 355 327 309 326 323 303 305 313 308 290 296 291 298 3 9
61 53 29 6 5 7 3 336 322 301 301 303 303 301 282 290 274 278 299 317 350 52
49 39 9 12 357 332 313 314 309 299 293 289 295 274 278 280 252 268 285 309 300 230